Weather History for KMIA - May, 2014

Change the Weather History Date:

Saturday, May 10, 2014

  Actual Average Record
Temperature  
Mean Temperature 82 °F 79 °F  
Max Temperature 87 °F 86 °F 94 °F (1941)
Min Temperature 77 °F 72 °F 57 °F (1923)
Degree Days  
Heating Degree Days 0 0  
Month to date heating degree days 0 0  
Since 1 July heating degree days 61 128  
Cooling Degree Days 17 14  
Month to date cooling degree days 160 135  
Year to date cooling degree days 1241 1028  
Growing Degree Days 32 (Base 50)    
Moisture  
Dew Point 70 °F    
Average Humidity 70    
Maximum Humidity 79    
Minimum Humidity 61    
Precipitation  
Precipitation 0.00 in 0.13 in 2.36 in (1968)
Month to date precipitation 0.29 1.16  
Year to date precipitation 7.15 11.17  
Snow  
Snow 0.00 in - - ()
Month to date snowfall 0.0  
Since 1 July snowfall 0.0  
Snow Depth 0.00 in    
Sea Level Pressure  
Sea Level Pressure 30.11 in    
Wind  
Wind Speed 15 mph (ESE)    
Max Wind Speed 21 mph    
Max Gust Speed 29 mph    
Visibility 10 miles    
Events      
T = Trace of Precipitation, MM = Missing Value Source: NWS Daily Summary

Daily Weather History Graph

Daily Weather History Graph

Search for Another Location

Airport or City:

Trip Planner

Search our weather history database for the weather conditions in past years. The results will help you decide how hot, cold, wet, or windy it might be!

Date:

Astronomy

May. 10, 2014 Rise Set
Actual Time 6:38 AM EDT 7:57 PM EDT
Civil Twilight 6:13 AM EDT 8:22 PM EDT
Nautical Twilight 5:44 AM EDT 8:51 PM EDT
Astronomical Twilight 5:14 AM EDT 9:21 PM EDT
Moon 4:14 PM EDT (5/10) 3:44 AM EDT (5/10)
Length of Visible Light 14h 08m
Length of Day
13h 18m
Waxing Gibbous, 82% of the Moon is Illuminated
May 10
Waxing Gibbous
May 14
Full
May 21
Last Quarter
May 28
New
Jun 5
First Quarter

Hourly Weather History & Observations

Time (EDT) Temp. Heat Index Dew Point Humidity Pressure Visibility Wind Dir Wind Speed Gust Speed Precip Events Conditions
12:53 AM 78.8 °F - 69.8 °F 74% 30.10 in 10.0 mi East 21.9 mph 26.5 mph N/A   Scattered Clouds
1:53 AM 79.0 °F - 69.1 °F 72% 30.09 in 10.0 mi ESE 17.3 mph 27.6 mph N/A   Scattered Clouds
2:53 AM 79.0 °F - 68.0 °F 69% 30.07 in 10.0 mi ESE 19.6 mph - N/A   Partly Cloudy
3:53 AM 79.0 °F - 69.1 °F 72% 30.07 in 10.0 mi ESE 13.8 mph - N/A   Partly Cloudy
4:53 AM 78.1 °F - 69.1 °F 74% 30.08 in 10.0 mi ESE 18.4 mph - N/A   Partly Cloudy
5:53 AM 79.0 °F - 69.1 °F 72% 30.09 in 10.0 mi ESE 11.5 mph - N/A   Mostly Cloudy
6:53 AM 78.8 °F - 68.0 °F 69% 30.10 in 10.0 mi ESE 13.8 mph 21.9 mph N/A   Scattered Clouds
7:53 AM 80.1 °F 82.9 °F 69.1 °F 69% 30.12 in 10.0 mi East 19.6 mph - N/A   Scattered Clouds
8:53 AM 82.0 °F 85.9 °F 70.0 °F 67% 30.15 in 10.0 mi East 15.0 mph - N/A   Mostly Cloudy
9:53 AM 82.9 °F 87.0 °F 70.0 °F 65% 30.16 in 10.0 mi ESE 17.3 mph - N/A   Mostly Cloudy
10:53 AM 82.0 °F 85.9 °F 70.0 °F 67% 30.15 in 10.0 mi ESE 19.6 mph 25.3 mph N/A   Mostly Cloudy
11:53 AM 82.9 °F 87.0 °F 70.0 °F 65% 30.15 in 10.0 mi ESE 17.3 mph 28.8 mph N/A   Mostly Cloudy
12:53 PM 82.9 °F 86.5 °F 69.1 °F 63% 30.14 in 10.0 mi SE 16.1 mph - N/A   Mostly Cloudy
1:53 PM 84.9 °F 90.1 °F 71.1 °F 63% 30.12 in 10.0 mi ESE 16.1 mph 23.0 mph N/A   Mostly Cloudy
2:53 PM 84.0 °F 88.4 °F 70.0 °F 63% 30.11 in 10.0 mi ESE 18.4 mph - N/A   Mostly Cloudy
3:53 PM 82.9 °F 86.5 °F 69.1 °F 63% 30.09 in 10.0 mi SE 13.8 mph 24.2 mph N/A   Mostly Cloudy
4:53 PM 84.9 °F 88.8 °F 69.1 °F 59% 30.08 in 10.0 mi East 16.1 mph - N/A   Mostly Cloudy
5:53 PM 84.0 °F 88.4 °F 70.0 °F 63% 30.07 in 10.0 mi ESE 15.0 mph - N/A   Mostly Cloudy
6:53 PM 82.0 °F 85.5 °F 69.1 °F 65% 30.07 in 10.0 mi East 12.7 mph - N/A   Overcast
7:53 PM 80.1 °F 83.2 °F 70.0 °F 71% 30.08 in 10.0 mi ESE 12.7 mph - N/A   Mostly Cloudy
8:53 PM 80.1 °F 83.2 °F 70.0 °F 71% 30.10 in 10.0 mi East 12.7 mph - N/A   Mostly Cloudy
9:53 PM 80.1 °F 83.2 °F 70.0 °F 71% 30.11 in 10.0 mi East 12.7 mph - N/A   Mostly Cloudy
10:51 PM 78.8 °F - 71.6 °F 78% 30.12 in 10.0 mi East 13.8 mph - N/A   Mostly Cloudy
10:53 PM 78.8 °F - 71.6 °F 78% 30.12 in 10.0 mi East 11.5 mph - N/A   Mostly Cloudy
11:53 PM 79.0 °F - 71.1 °F 77% 30.12 in 10.0 mi East 11.5 mph - N/A   Mostly Cloudy